Weather History for The Villages, FL

Change the Weather History Date:

Thursday, May 17, 2012

  Actual Average (KLEE) Record (KLEE)
Temperature  
Mean Temperature 78 °F -  
Max Temperature 87 °F 87 °F 96 °F (1991)
Min Temperature 69 °F 65 °F 55 °F (1973)
Cooling Degree Days 13    
Growing Degree Days 28 (Base 50)    
Moisture  
Dew Point 66 °F    
Average Humidity 74    
Maximum Humidity 100    
Minimum Humidity 40    
Precipitation  
Precipitation 0.00 in - - ()
Sea Level Pressure  
Sea Level Pressure 29.92 in    
Wind  
Wind Speed 2 mph (WNW)    
Max Wind Speed 9 mph    
Max Gust Speed -    
Visibility 9 miles    
Events Rain    
Averages and records for this station are not official NWS values.
T = Trace of Precipitation, MM = Missing Value Source: NWS Daily Summary

Daily Weather History Graph

Daily Weather History Graph

Search for Another Location

Airport:

Trip Planner

Search our weather history database for the weather conditions in past years. The results will help you decide how hot, cold, wet, or windy it might be!

Date:

Astronomy

May. 17, 2012 Rise Set
Actual Time 6:35 AM EDT 8:13 PM EDT
Civil Twilight 6:09 AM EDT 8:39 PM EDT
Nautical Twilight 5:37 AM EDT 9:11 PM EDT
Astronomical Twilight 5:05 AM EDT 9:43 PM EDT
Moon 4:20 AM EDT (5/17) 5:34 PM EDT (5/17)
Length of Visible Light 14h 30m
Length of Day
13h 38m
Waning Crescent, 10% of the Moon is Illuminated
May 17
Waning Crescent
May 20
New
May 28
First Quarter
Jun 4
Full
Jun 11
Last Quarter

Hourly Weather History & Observations

Time (EDT) Temp. Heat Index Dew Point Humidity Pressure Visibility Wind Dir Wind Speed Gust Speed Precip Events Conditions
12:15 AM 71.6 °F - 69.8 °F 94% 29.99 in 5.0 mi WSW 3.5 mph - N/A Rain Light Rain
12:35 AM 71.6 °F - 69.8 °F 94% 29.98 in 7.0 mi Calm Calm - N/A   Light Drizzle
12:55 AM 69.8 °F - 69.8 °F 100% 29.96 in 5.0 mi Calm Calm - N/A   Mist
1:15 AM 69.8 °F - 69.8 °F 100% 29.96 in 7.0 mi Calm Calm - N/A   Unknown
1:35 AM 69.8 °F - 68.0 °F 94% 29.95 in 8.0 mi SE 5.8 mph - N/A   Unknown
1:55 AM 69.8 °F - 68.0 °F 94% 29.94 in 7.0 mi Calm Calm - N/A   Unknown
2:15 AM 69.8 °F - 68.0 °F 94% 29.94 in 7.0 mi Calm Calm - N/A   Unknown
2:35 AM 69.8 °F - 68.0 °F 94% 29.93 in 9.0 mi Calm Calm - N/A   Unknown
2:55 AM 69.8 °F - 68.0 °F 94% 29.92 in 5.0 mi Calm Calm - N/A   Mist
3:15 AM 69.8 °F - 68.0 °F 94% 29.92 in 5.0 mi Calm Calm - N/A   Mist
3:35 AM 69.8 °F - 68.0 °F 94% 29.91 in 4.0 mi Calm Calm - N/A   Mist
3:55 AM 69.8 °F - 68.0 °F 94% 29.92 in 5.0 mi Calm Calm - N/A   Mist
4:15 AM 69.8 °F - 69.8 °F 100% 29.92 in 5.0 mi Calm Calm - N/A   Mist
4:35 AM 69.8 °F - 68.0 °F 94% 29.92 in 3.0 mi Calm Calm - N/A   Mist
4:55 AM 69.8 °F - 68.0 °F 94% 29.92 in 4.0 mi Calm Calm - N/A   Mist
5:15 AM 69.8 °F - 69.8 °F 100% 29.93 in 5.0 mi Calm Calm - N/A   Mist
5:35 AM 69.8 °F - 69.8 °F 100% 29.92 in 5.0 mi Calm Calm - N/A   Mist
5:55 AM 69.8 °F - 69.8 °F 100% 29.92 in 5.0 mi Calm Calm - N/A   Mist
6:15 AM 69.8 °F - 68.0 °F 94% 29.92 in 7.0 mi Calm Calm - N/A   Unknown
6:35 AM 69.8 °F - 68.0 °F 94% 29.93 in 5.0 mi Calm Calm - N/A   Mist
6:55 AM 69.8 °F - 68.0 °F 94% 29.93 in 5.0 mi Calm Calm - N/A   Mist
7:15 AM 69.8 °F - 69.8 °F 100% 29.93 in 9.0 mi Calm Calm - N/A   Unknown
7:35 AM 71.6 °F - 69.8 °F 94% 29.94 in 9.0 mi South 5.8 mph - N/A   Unknown
7:55 AM 71.6 °F - 69.8 °F 94% 29.94 in 10.0 mi South 4.6 mph - N/A   Unknown
8:15 AM 71.6 °F - 68.0 °F 88% 29.94 in 10.0 mi Calm Calm - N/A   Unknown
8:35 AM 71.6 °F - 68.0 °F 88% 29.95 in 10.0 mi SSW 6.9 mph - N/A   Unknown
8:55 AM 73.4 °F - 69.8 °F 88% 29.95 in 10.0 mi SW 5.8 mph - N/A   Unknown
9:15 AM 73.4 °F - 68.0 °F 83% 29.95 in 10.0 mi Calm Calm - N/A   Unknown
9:35 AM 75.2 °F - 68.0 °F 78% 29.96 in 10.0 mi Calm Calm - N/A   Unknown
9:55 AM 75.2 °F - 66.2 °F 73% 29.96 in 10.0 mi Calm Calm - N/A   Unknown
10:15 AM 77.0 °F - 64.4 °F 65% 29.95 in 10.0 mi NNE 3.5 mph - N/A   Unknown
10:35 AM 78.8 °F - 66.2 °F 65% 29.95 in 10.0 mi NW 4.6 mph - N/A   Unknown
10:55 AM 77.0 °F - 66.2 °F 69% 29.95 in 10.0 mi Calm Calm - N/A   Unknown
11:15 AM 80.6 °F 82.7 °F 66.2 °F 61% 29.95 in 10.0 mi Calm Calm - N/A   Unknown
11:35 AM 80.6 °F 82.7 °F 66.2 °F 61% 29.95 in 10.0 mi Calm Calm - N/A   Unknown
11:55 AM 80.6 °F 82.7 °F 66.2 °F 61% 29.95 in 10.0 mi Calm Calm - N/A   Unknown
12:15 PM 82.4 °F 84.6 °F 66.2 °F 58% 29.94 in 10.0 mi NNW 5.8 mph - N/A   Unknown
12:35 PM 82.4 °F 83.9 °F 64.4 °F 54% 29.94 in 10.0 mi West 6.9 mph - N/A   Unknown
12:55 PM 84.2 °F 85.6 °F 64.4 °F 51% 29.93 in 10.0 mi WNW 4.6 mph - N/A   Unknown
1:15 PM 82.4 °F 83.9 °F 64.4 °F 54% 29.92 in 10.0 mi WNW 5.8 mph - N/A   Unknown
1:35 PM 84.2 °F 85.6 °F 64.4 °F 51% 29.91 in 10.0 mi NW 5.8 mph - N/A   Unknown
1:55 PM 86.0 °F 86.6 °F 62.6 °F 45% 29.90 in 10.0 mi West 8.1 mph - N/A   Unknown
2:35 PM 87.8 °F 89.4 °F 64.4 °F 46% 29.89 in 10.0 mi WNW 8.1 mph - N/A   Unknown
2:55 PM 87.8 °F 88.5 °F 62.6 °F 43% 29.88 in 10.0 mi West 4.6 mph - N/A   Unknown
3:15 PM 87.8 °F 88.5 °F 62.6 °F 43% 29.88 in 10.0 mi NNW 8.1 mph - N/A   Unknown
3:35 PM 87.8 °F 87.6 °F 60.8 °F 40% 29.86 in 10.0 mi WSW 3.5 mph - N/A   Unknown
3:55 PM 87.8 °F 88.5 °F 62.6 °F 43% 29.86 in 10.0 mi WNW 8.1 mph - N/A   Unknown
4:15 PM 84.2 °F 85.0 °F 62.6 °F 48% 29.86 in 10.0 mi WNW 3.5 mph - N/A   Light Drizzle
4:35 PM 82.4 °F 84.6 °F 66.2 °F 58% 29.86 in 8.0 mi SW 5.8 mph - N/A   Light Drizzle
4:55 PM 80.6 °F 83.9 °F 69.8 °F 70% 29.86 in 8.0 mi Calm Calm - N/A   Light Drizzle
5:15 PM 82.4 °F 84.6 °F 66.2 °F 58% 29.85 in 10.0 mi WNW 5.8 mph - N/A   Unknown
5:35 PM 82.4 °F 84.6 °F 66.2 °F 58% 29.85 in 10.0 mi WNW 6.9 mph - N/A   Unknown
5:55 PM 82.4 °F 83.9 °F 64.4 °F 54% 29.85 in 10.0 mi WNW 8.1 mph - N/A   Unknown
6:15 PM 84.2 °F 84.4 °F 60.8 °F 45% 29.85 in 10.0 mi West 9.2 mph - N/A   Unknown
6:35 PM 82.4 °F 82.5 °F 59.0 °F 45% 29.86 in 10.0 mi West 9.2 mph - N/A   Unknown
6:55 PM 82.4 °F 82.5 °F 59.0 °F 45% 29.86 in 10.0 mi NW 6.9 mph - N/A   Unknown
7:15 PM 82.4 °F 83.4 °F 62.6 °F 51% 29.87 in 10.0 mi WNW 6.9 mph - N/A   Unknown
7:55 PM 80.6 °F 82.3 °F 64.4 °F 58% 29.88 in 10.0 mi NW 4.6 mph - N/A   Unknown
8:15 PM 78.8 °F - 64.4 °F 61% 29.89 in 10.0 mi Calm Calm - N/A   Unknown
8:35 PM 78.8 °F - 64.4 °F 61% 29.89 in 10.0 mi Calm Calm - N/A   Unknown
8:55 PM 75.2 °F - 64.4 °F 69% 29.89 in 10.0 mi Calm Calm - N/A   Unknown
9:15 PM 75.2 °F - 62.6 °F 65% 29.90 in 10.0 mi Calm Calm - N/A   Unknown
9:35 PM 73.4 °F - 62.6 °F 69% 29.92 in 10.0 mi Calm Calm - N/A   Unknown
9:55 PM 73.4 °F - 62.6 °F 69% 29.93 in 10.0 mi Calm Calm - N/A   Unknown
10:15 PM 71.6 °F - 62.6 °F 73% 29.94 in 10.0 mi Calm Calm - N/A   Unknown
10:35 PM 71.6 °F - 62.6 °F 73% 29.94 in 10.0 mi Calm Calm - N/A   Unknown
10:55 PM 71.6 °F - 64.4 °F 78% 29.95 in 10.0 mi NNE 6.9 mph - N/A   Unknown
11:15 PM 71.6 °F - 64.4 °F 78% 29.96 in 10.0 mi Calm Calm - N/A   Unknown
11:35 PM 69.8 °F - 66.2 °F 88% 29.96 in 10.0 mi Calm Calm - N/A   Unknown
11:55 PM 69.8 °F - 66.2 °F 88% 29.95 in 10.0 mi Calm Calm - N/A   Unknown